Location: Vihti�l�
(61.3833°N, 23.0667°E)
Time: 04:45:12
(UTC+00:00)

COSMOS 2406 - Pass Details

Date: 29 November 2020
Orbit: 840 x 866 km, 71.0° (Epoch: 19 January)

Event Time Altitude Azimuth Distance (km) Brightness Sun altitude
Exits shadow 03:36:07 37° 328° (NNW) 1,311 3.9 -23.6°
Maximum altitude 03:38:27 72° 43° (NE) 907 3.4 -23.3°
Drops below altitude 10° 03:44:13 10° 128° (SE) 2,505 6.4 -22.6°
Sets 03:46:42 0° 131° (SE) 3,442 7.2 -22.3°
